Weather History for Gwinn, MI

Change the Weather History Date:

Wednesday, October 19, 2011

  Actual Average (KESC) Record (KESC)
Temperature  
Mean Temperature 40 °F -  
Max Temperature 44 °F 51 °F 69 °F (1953)
Min Temperature 35 °F 37 °F 25 °F (1981)
Degree Days  
Heating Degree Days 26    
Moisture  
Dew Point 35 °F    
Average Humidity 81    
Maximum Humidity 93    
Minimum Humidity 66    
Precipitation  
Precipitation 0.01 in - - ()
Sea Level Pressure  
Sea Level Pressure 29.94 in    
Wind  
Wind Speed 10 mph (NNE)    
Max Wind Speed 28 mph    
Max Gust Speed 34 mph    
Visibility 9 miles    
Events Rain    
Averages and records for this station are not official NWS values.
T = Trace of Precipitation, MM = Missing Value Source: NWS Daily Summary

Daily Weather History Graph

Daily Weather History Graph

Search for Another Location

Airport:

Trip Planner

Search our weather history database for the weather conditions in past years. The results will help you decide how hot, cold, wet, or windy it might be!

Date:

Astronomy

Oct. 19, 2011 Rise Set
Actual Time 8:12 AM EDT 6:56 PM EDT
Civil Twilight 7:41 AM EDT 7:26 PM EDT
Nautical Twilight 7:06 AM EDT 8:01 PM EDT
Astronomical Twilight 6:31 AM EDT 8:36 PM EDT
Moon No Moon Rise 2:52 PM EDT (10/19)
Length of Visible Light 11h 45m
Length of Day
10h 44m
Waning Gibbous, 55% of the Moon is Illuminated
Oct 19
Waning Gibbous
Oct 19
Last Quarter
Oct 26
New
Nov 2
First Quarter
Nov 10
Full

Hourly Weather History & Observations

Time (EDT) Temp. Windchill Dew Point Humidity Pressure Visibility Wind Dir Wind Speed Gust Speed Precip Events Conditions
12:18 AM 35.6 °F 29.9 °F 33.8 °F 93% 29.94 in 10.0 mi NW 6.9 mph - N/A   Overcast
12:38 AM 35.6 °F 30.7 °F 33.8 °F 93% 29.94 in 10.0 mi NW 5.8 mph - N/A   Overcast
12:59 AM 35.6 °F 30.7 °F 33.8 °F 93% 29.94 in 10.0 mi NW 5.8 mph - N/A   Overcast
1:18 AM 35.6 °F 31.7 °F 33.8 °F 93% 29.94 in 4.0 mi North 4.6 mph - N/A Rain Light Rain
1:38 AM 37.4 °F 31.4 °F 33.8 °F 87% 29.93 in 10.0 mi NNE 8.1 mph - N/A Rain Light Rain
1:58 AM 37.4 °F 34.9 °F 33.8 °F 87% 29.93 in 4.0 mi NW 3.5 mph - N/A Rain Light Rain
2:18 AM 37.4 °F 32.8 °F 33.8 °F 87% 29.93 in 10.0 mi North 5.8 mph - N/A Rain Light Rain
2:39 AM 37.4 °F - 35.6 °F 93% 29.94 in 10.0 mi Calm Calm - N/A   Overcast
2:58 AM 37.4 °F 34.9 °F 35.6 °F 93% 29.94 in 10.0 mi North 3.5 mph - N/A   Overcast
3:19 AM 39.2 °F 34.2 °F 35.6 °F 87% 29.94 in 10.0 mi NE 6.9 mph - N/A   Overcast
3:39 AM 39.2 °F 33.0 °F 35.6 °F 87% 29.94 in 10.0 mi NE 9.2 mph - N/A   Overcast
3:58 AM 39.2 °F 32.0 °F 35.6 °F 87% 29.94 in 10.0 mi NNE 11.5 mph - N/A   Mostly Cloudy
4:19 AM 41.0 °F 34.7 °F 35.6 °F 81% 29.94 in 10.0 mi NNE 10.4 mph - N/A Rain Light Rain
4:39 AM 39.2 °F 33.6 °F 35.6 °F 87% 29.94 in 10.0 mi NNE 8.1 mph - N/A   Overcast
4:58 AM 39.2 °F 33.0 °F 35.6 °F 87% 29.94 in 10.0 mi NNE 9.2 mph - N/A   Mostly Cloudy
5:19 AM 39.2 °F 35.0 °F 35.6 °F 87% 29.94 in 5.0 mi NNE 5.8 mph - N/A Rain Light Rain
5:38 AM 39.2 °F 34.2 °F 37.4 °F 93% 29.95 in 4.0 mi NE 6.9 mph - N/A   Overcast
5:58 AM 39.2 °F 32.5 °F 35.6 °F 87% 29.95 in 5.0 mi NNE 10.4 mph - N/A Rain Light Rain
6:50 AM 41.0 °F 34.7 °F 37.4 °F 87% 29.95 in 10.0 mi NNE 10.4 mph - N/A   Overcast
7:50 AM 41.0 °F 33.1 °F 37.4 °F 87% 29.96 in 4.0 mi NNE 15.0 mph - N/A Rain Light Rain
8:50 AM 41.0 °F 33.5 °F 37.4 °F 87% 29.97 in 10.0 mi NNE 13.8 mph - N/A   Overcast
9:50 AM 42.8 °F 36.2 °F 37.4 °F 81% 29.98 in 10.0 mi NNE 12.7 mph - N/A   Overcast
11:50 AM 42.8 °F 34.8 °F 37.4 °F 81% 29.99 in 7.0 mi NNE 17.3 mph 25.3 mph N/A Rain Light Rain
12:55 PM 44.6 °F 37.8 °F 37.4 °F 76% 30.00 in 10.0 mi NE 15.0 mph 20.7 mph N/A   Overcast
1:50 PM 44.6 °F 38.1 °F 35.6 °F 71% 29.99 in 10.0 mi NE 13.8 mph 23.0 mph N/A   Overcast
2:50 PM 44.6 °F 37.4 °F 35.6 °F 71% 29.97 in 10.0 mi NNE 16.1 mph 23.0 mph N/A   Overcast
3:55 PM 44.6 °F 37.2 °F 35.6 °F 71% 29.97 in 10.0 mi NNE 17.3 mph 23.0 mph N/A   Overcast
4:55 PM 44.6 °F 37.2 °F 35.6 °F 71% 29.97 in 10.0 mi NNE 17.3 mph 29.9 mph 0.01 in   Mostly Cloudy
5:50 PM 42.8 °F 33.8 °F 35.6 °F 76% 29.95 in 10.0 mi NNE 21.9 mph 27.6 mph N/A   Overcast
6:55 PM 42.8 °F 34.0 °F 35.6 °F 76% 29.94 in 10.0 mi NNE 20.7 mph 27.6 mph N/A   Overcast
7:55 PM 42.8 °F 36.6 °F 33.8 °F 70% 29.95 in 10.0 mi NE 11.5 mph 33.4 mph N/A   Overcast
8:50 PM 42.8 °F 33.1 °F 33.8 °F 70% 29.93 in 10.0 mi NNE 25.3 mph 32.2 mph N/A   Overcast
9:50 PM 41.0 °F 31.1 °F 33.8 °F 76% 29.91 in 10.0 mi NNE 23.0 mph 32.2 mph N/A   Overcast
10:18 PM 42.8 °F 33.8 °F 32.0 °F 66% 29.91 in 10.0 mi NNE 21.9 mph 31.1 mph N/A   Overcast
10:39 PM 42.8 °F 32.7 °F 32.0 °F 66% 29.89 in 10.0 mi NNE 27.6 mph 33.4 mph N/A   Overcast
10:58 PM 42.8 °F 34.0 °F 33.8 °F 70% 29.89 in 10.0 mi NNE 20.7 mph 34.5 mph N/A   Overcast
11:18 PM 42.8 °F 33.1 °F 32.0 °F 66% 29.87 in 10.0 mi NNE 25.3 mph 33.4 mph N/A   Overcast
11:38 PM 42.8 °F 33.5 °F 33.8 °F 70% 29.87 in 10.0 mi NNE 23.0 mph 34.5 mph N/A   Overcast
11:58 PM 42.8 °F 33.1 °F 33.8 °F 70% 29.86 in 10.0 mi NNE 25.3 mph 32.2 mph N/A   Overcast